Regional Weather Roundup
Issued by NWS Sterling, VA

Home | Current Version | Previous Version | Graphics & Text | Print | Product List | Glossary On
Versions: 1 2 3 4 5 6 7 8 9 10 11 12 13 14 15 16 17 18 19 20 21 22 23 24 25 26 27 28 29 30 31 32 33 34 35 36 37 38 39 40 41 42 43 44 45 46 47 48 49 50
000
ASUS41 KLWX 022110
RWRLWX

REGIONAL WEATHER ROUNDUP
NATIONAL WEATHER SERVICE BALTIMORE MD/WASHINGTON DC
500 PM EDT WED SEP 02 2015

Note: "FAIR" indicates few or no clouds below 12,000 feet
with no significant weather and/or obstructions to visibility.
 TC=TEMPERATURE CELSIUS

 * =Non NWS site. Station does not report precipitation (e.g. rain,
    snow, etc.), thunder, or fog.

DCZ001-MDZ009-015-VAZ040>042-051-053>054-022200-
WASHINGTON METRO

CITY           SKY/WX    TMP DP  RH WIND       PRES   REMARKS
WASHINGTON NAT CLOUDY    91  66  43 W6        29.95S HX  93
DULLES         CLOUDY    87  65  47 NW7       29.96F
ANDREWS AFB    FAIR      88  70  55 SE3       29.94S THUNDER HX  92
FT BELVOIR     LGT RAIN  86  70  58 NW10G22   29.95S HX  90
QUANTICO       FAIR      89  69  51 CALM      29.96S THUNDER HX  93
COLLEGE PARK*  FAIR      90  64  43 W6        29.94S HX  91
LEESBURG*      FAIR      84  73  70 W7        29.98S HX  91
MANASSAS*      MOSUNNY   81  72  74 NE5       29.97S
GAITHERSBURG*  FAIR      88  66  48 W7        30.00S HX  90

$$

MDZ006>007-011-014-022200-
BALTIMORE METRO

CITY           SKY/WX    TMP DP  RH WIND       PRES   REMARKS
BWI AIRPORT    PTSUNNY   90  66  45 CALM      29.93S HX  92
MD SCIENCE CTR   N/A     91  66  43 MISG      29.93S HX  93
MARTIN STATE   MOSUNNY   86  75  70 SE7       29.94S HX  95
ANNAPOLIS      FAIR      86  72  62 S9        29.93F HX  92
FORT MEADE*    FAIR      82  73  74 S3        29.96S

$$

MDZ012-015-019>023-022200-
MARYLAND EASTERN SHORE

CITY           SKY/WX    TMP DP  RH WIND       PRES   REMARKS
OCEAN CITY     FAIR      84  70  62 S5        29.95F
SALISBURY      FAIR      87  67  51 W3        29.94F HX  90
BAY BRIDGE AP*   N/A     86  68  54 S5        29.94S
CAMBRIDGE*     FAIR      91  66  43 CALM      29.94F HX  94

$$

MDZ017>025-022200-
SOUTHERN MARYLAND

CITY           SKY/WX    TMP DP  RH WIND       PRES   REMARKS
PATUXENT RIVER PTSUNNY   84  71  65 SW3       29.95F
ST INIGOES     FAIR      85  75  72 CALM      29.94F HX  93
LEONARDTOWN*   NOT AVBL

$$

MDZ003>005-022200-
NORTH CENTRAL MARYLAND

CITY           SKY/WX    TMP DP  RH WIND       PRES   REMARKS
FREDERICK*     NOT AVBL
HAGERSTOWN APT PTSUNNY   74  67  78 SE3       29.99F
WESTMINSTER*   FAIR      88  66  48 W5        29.97S THUNDER HX  90

$$

MDZ501>502-022200-
WESTERN MARYLAND

CITY           SKY/WX    TMP DP  RH WIND       PRES   REMARKS
OAKLAND*       CLOUDY    64  61  88 W3        30.13F
CUMBERLAND*    FAIR      77  68  73 CALM      30.06S

$$

VAZ025>031-022200-
SHENANDOAH VALLEY

CITY           SKY/WX    TMP DP  RH WIND       PRES   REMARKS
WINCHESTER*    FAIR      79  72  78 SW6       30.00F
FRONT ROYAL*   MOCLDY    68  68 100 SW3       30.02R
LURAY*         TSTM      68  63  83 S9G23     30.06R
NEW MARKET*    FAIR      68  66  93 CALM      30.04F
STAUNTON*      FAIR      83  63  50 NW6       30.06R
WAYNESBORO*    CLOUDY    72  64  76 E5        30.07R

$$

WVZ021-048>050-054>055-022200-
EASTERN WEST VIRGINIA PANHANDLE

CITY           SKY/WX    TMP DP  RH WIND       PRES   REMARKS
MARTINSBURG    FAIR      83  67  58 SW7       29.98F
PETERSBURG*    FAIR      72  69  90 CALM      30.05F

$$

VAZ036>039-050-022200-
CENTRAL FOOTHILLS

CITY           SKY/WX    TMP DP  RH WIND       PRES   REMARKS
CHARLOTTESVILL FAIR      79  65  62 VRB5      29.99F
CULPEPER*      FAIR      79  66  65 N5        29.98F
ORANGE*        FAIR      82  68  61 NW9       29.99F
GORDONSVILLE*  FAIR      85  72  65 N3        29.97F HX  90
WARRENTON*     FAIR      82  71  68 W7        29.98S

$$

VAZ055>057-022200-
NORTH AND CENTRAL PIEDMONT

CITY           SKY/WX    TMP DP  RH WIND       PRES   REMARKS
FREDERICKSBRG* CLOUDY    84  70  62 S21G28    29.95S
STAFFORD*      FAIR      89  67  49 N7        30.00S HX  92

$$

NCZ024-NYZ072-PAZ021-071-VAZ022-071-022200-
OTHER REGIONAL OBSERVATIONS

CITY           SKY/WX    TMP DP  RH WIND       PRES   REMARKS
NEW YORK CITY  FAIR      86  64  47 MISG      29.93F
PHILADELPHIA   FAIR      93  60  33 SW8       29.91F HX  93
PITTSBURGH     FAIR      89  61  38 W6        30.01F
ROANOKE        PTSUNNY   90  61  37 NW14      30.02F HX  90
RICHMOND       PTSUNNY   83  68  60 NE8       29.96F
RALEIGH        PTSUNNY   92  68  45 SW10      29.97F HX  96

$$

ANZ530>537-022200-
MARINE OBSERVATIONS

STATION/POSITION TIME  TEMP    WIND        PRES
                       AIR SEA DIR/SP/G
                 (UTC) (F)     (DEG/KT/KT) (MB)
THOMAS PT LIGHT  NOT AVBL
BALT KEY BRIDGE  2000   83     100/ 10/ 11 1013.5F
COVE POINT       2000   85      CALM  /  1 1015.1F
LEWISETTA        2000   82 81  140/  5/  6 1014.3F
SOLOMONS ISLAND  2000      83                N/A
PINEY POINT      2005          140/  3/  3   N/A

$$




USA.gov is the U.S. government's official web portal to all federal, state and local government web resources and services.